| time (UTC) | temp F | wind direction | speed knots | gust knots | rain 1hr in | rain 24hr in | rain mn in | humidity % | barometer mb |
| 20260506161537 | 62 | 243 | 0.9 | 5.2 | 0.00 | 0.00 | 0.00 | 64 | 1007.8 |
| 20260506160036 | 63 | 234 | 0.9 | 7.0 | 0.00 | 0.00 | 0.00 | 63 | 1007.8 |
| 20260506154552 | 64 | 51 | 0.9 | 5.2 | 0.00 | 0.00 | 0.00 | 60 | 1008.1 |
| 20260506153033 | 63 | 75 | 1.7 | 7.8 | 0.00 | 0.00 | 0.00 | 60 | 1008.3 |
| 20260506151541 | 63 | 226 | 2.6 | 8.7 | 0.00 | 0.00 | 0.00 | 60 | 1008.2 |
| 20260506150038 | 62 | 276 | 0.9 | 7.0 | 0.00 | 0.00 | 0.00 | 61 | 1008.2 |
| 20260506144534 | 62 | 103 | 0.9 | 7.0 | 0.00 | 0.00 | 0.00 | 61 | 1008.3 |
| 20260506143042 | 62 | 80 | 0.9 | 7.0 | 0.00 | 0.00 | 0.00 | 61 | 1008.6 |
| 20260506141541 | 62 | 116 | 0.0 | 5.2 | 0.00 | 0.00 | 0.00 | 62 | 1008.6 |
| 20260506140041 | 61 | 256 | 0.9 | 6.1 | 0.00 | 0.00 | 0.00 | 62 | 1008.7 |
| 20260506134535 | 61 | 199 | 0.9 | 10.4 | 0.00 | 0.00 | 0.00 | 63 | 1008.5 |
| 20260506133036 | 60 | 165 | 0.9 | 7.0 | 0.00 | 0.00 | 0.00 | 64 | 1008.7 |
| 20260506131537 | 60 | 94 | 1.7 | 7.8 | 0.00 | 0.00 | 0.00 | 63 | 1008.1 |
| 20260506130041 | 59 | 189 | 0.0 | 4.3 | 0.00 | 0.00 | 0.00 | 65 | 1008.6 |
| 20260506124544 | 59 | 141 | 0.9 | 3.5 | 0.00 | 0.00 | 0.00 | 66 | 1008.6 |
| 20260506123037 | 59 | 238 | 0.0 | 2.6 | 0.00 | 0.00 | 0.00 | 66 | 1008.8 |
| 20260506121543 | 58 | 108 | 0.9 | 1.7 | 0.00 | 0.00 | 0.00 | 67 | 1009.0 |
| 20260506120039 | 57 | 304 | 0.9 | 6.1 | 0.00 | 0.00 | 0.00 | 68 | 1008.8 |
| 20260506114542 | 57 | 72 | 0.0 | 4.3 | 0.00 | 0.00 | 0.00 | 70 | 1008.8 |
| 20260506113041 | 56 | 300 | 0.0 | 2.6 | 0.00 | 0.00 | 0.00 | 71 | 1008.9 |
| 20260506111542 | 56 | 129 | 0.9 | 3.5 | 0.00 | 0.00 | 0.00 | 72 | 1008.9 |
| 20260506110040 | 56 | 121 | 0.0 | 2.6 | 0.00 | 0.00 | 0.00 | 73 | 1008.9 |
| 20260506104536 | 55 | 151 | 0.9 | 3.5 | 0.00 | 0.00 | 0.00 | 74 | 1008.9 |
| 20260506103034 | 54 | 0 | 0.0 | 3.5 | 0.00 | 0.00 | 0.00 | 74 | 1008.8 |
| 20260506101534 | 54 | 110 | 0.9 | 4.3 | 0.00 | 0.00 | 0.00 | 74 | 1008.9 |
| 20260506100040 | 54 | 221 | 0.0 | 3.5 | 0.00 | 0.00 | 0.00 | 73 | 1008.8 |
| 20260506094539 | 54 | 179 | 0.0 | 3.5 | 0.00 | 0.00 | 0.00 | 72 | 1008.7 |
| 20260506093036 | 54 | 124 | 0.0 | 3.5 | 0.00 | 0.00 | 0.00 | 71 | 1008.6 |
| 20260506091535 | 54 | 177 | 0.9 | 3.5 | 0.00 | 0.00 | 0.00 | 70 | 1008.6 |
| 20260506090046 | 54 | 94 | 0.0 | 3.5 | 0.00 | 0.00 | 0.00 | 69 | 1008.8 |
| 20260506084542 | 54 | 0 | 0.0 | 2.6 | 0.00 | 0.00 | 0.00 | 69 | 1008.9 |
| 20260506083041 | 55 | 129 | 0.0 | 5.2 | 0.00 | 0.00 | 0.00 | 68 | 1008.8 |
| 20260506081541 | 55 | 79 | 0.0 | 4.3 | 0.00 | 0.00 | 0.00 | 68 | 1009.0 |
| 20260506073034 | 55 | 217 | 0.0 | 5.2 | 0.00 | 0.00 | 0.00 | 67 | 1009.1 |
| 20260506071542 | 56 | 150 | 0.0 | 1.7 | 0.00 | 0.00 | 0.00 | 65 | 1009.0 |
| 20260506061535 | 58 | 148 | 0.0 | 2.6 | 0.00 | 0.00 | 0.00 | 62 | 1008.9 |
| 20260506044543 | 60 | 141 | 0.0 | 5.2 | 0.00 | 0.00 | 0.00 | 57 | 1009.7 |
| 20260506043036 | 60 | 139 | 0.0 | 4.3 | 0.00 | 0.00 | 0.00 | 56 | 1009.7 |
| 20260506041550 | 61 | 250 | 0.0 | 5.2 | 0.00 | 0.00 | 0.00 | 56 | 1009.8 |
| 20260506040035 | 61 | 96 | 0.0 | 7.0 | 0.00 | 0.00 | 0.00 | 55 | 1009.7 |
| 20260506034547 | 61 | 0 | 0.0 | 5.2 | 0.00 | 0.00 | 0.00 | 55 | 1009.7 |
| 20260506033039 | 61 | 0 | 1.7 | 5.2 | 0.00 | 0.00 | 0.00 | 55 | 1009.7 |
| 20260506031535 | 61 | 0 | 0.9 | 5.2 | 0.00 | 0.00 | 0.00 | 54 | 1009.7 |
| 20260506030038 | 61 | 143 | 0.9 | 4.3 | 0.00 | 0.00 | 0.00 | 54 | 1009.6 |
| 20260506024541 | 62 | 213 | 0.0 | 3.5 | 0.00 | 0.00 | 0.00 | 53 | 1009.5 |
| 20260506023043 | 62 | 293 | 0.0 | 4.3 | 0.00 | 0.00 | 0.00 | 53 | 1009.6 |
| 20260506021536 | 62 | 218 | 0.0 | 4.3 | 0.00 | 0.00 | 0.00 | 52 | 1009.5 |
| 20260506020034 | 62 | 225 | 0.0 | 6.1 | 0.00 | 0.00 | 0.00 | 51 | 1009.5 |
| 20260506014541 | 63 | 156 | 0.0 | 2.6 | 0.00 | 0.00 | 0.00 | 52 | 1009.4 |
| 20260506013051 | 63 | 128 | 0.0 | 4.3 | 0.00 | 0.00 | 0.00 | 52 | 1009.2 |
| 20260506011542 | 63 | 111 | 0.9 | 5.2 | 0.00 | 0.00 | 0.00 | 52 | 1009.0 |
| 20260506010037 | 63 | 142 | 0.9 | 4.3 | 0.00 | 0.00 | 0.00 | 52 | 1008.8 |
| 20260506004534 | 63 | 120 | 0.0 | 2.6 | 0.00 | 0.00 | 0.00 | 51 | 1008.6 |
| 20260506003041 | 64 | 102 | 0.0 | 7.0 | 0.00 | 0.00 | 0.00 | 50 | 1008.4 |
| 20260506001536 | 64 | 116 | 0.0 | 3.5 | 0.00 | 0.00 | 0.00 | 49 | 1008.2 |
| 20260506000036 | 65 | 115 | 0.9 | 7.8 | 0.00 | 0.00 | 0.00 | 47 | 1007.9 |
| 20260505234535 | 66 | 140 | 0.9 | 2.6 | 0.00 | 0.00 | 0.00 | 46 | 1007.7 |
| 20260505233034 | 67 | 214 | 0.0 | 3.5 | 0.00 | 0.00 | 0.00 | 45 | 1007.6 |
| 20260505231540 | 68 | 200 | 0.9 | 7.0 | 0.00 | 0.00 | 0.00 | 43 | 1007.4 |
| 20260505230107 | 69 | 68 | 0.0 | 5.2 | 0.00 | 0.00 | 0.00 | 42 | 1007.1 |
| 20260505224535 | 70 | 133 | 1.7 | 10.4 | 0.00 | 0.00 | 0.00 | 41 | 1007.0 |
| 20260505223038 | 71 | 87 | 1.7 | 9.6 | 0.00 | 0.00 | 0.00 | 40 | 1006.8 |
| 20260505221541 | 72 | 236 | 0.9 | 8.7 | 0.00 | 0.00 | 0.00 | 39 | 1006.7 |
| 20260505220051 | 73 | 93 | 1.7 | 7.0 | 0.00 | 0.00 | 0.00 | 36 | 1006.7 |
| 20260505214537 | 74 | 261 | 3.5 | 10.4 | 0.00 | 0.00 | 0.00 | 34 | 1006.9 |
| 20260505213035 | 75 | 247 | 2.6 | 9.6 | 0.00 | 0.00 | 0.00 | 32 | 1006.7 |
| 20260505211532 | 75 | 212 | 3.5 | 10.4 | 0.00 | 0.00 | 0.00 | 33 | 1006.6 |
| 20260505210035 | 75 | 211 | 3.5 | 13.9 | 0.00 | 0.00 | 0.00 | 34 | 1006.5 |
| 20260505204535 | 76 | 66 | 3.5 | 8.7 | 0.00 | 0.00 | 0.00 | 32 | 1006.5 |
| 20260505203036 | 77 | 212 | 2.6 | 9.6 | 0.00 | 0.00 | 0.00 | 32 | 1006.5 |
| 20260505201536 | 77 | 250 | 4.3 | 11.3 | 0.00 | 0.00 | 0.00 | 32 | 1006.5 |
| 20260505200043 | 78 | 281 | 2.6 | 11.3 | 0.00 | 0.00 | 0.00 | 31 | 1006.6 |
| 20260505194539 | 78 | 230 | 3.5 | 9.6 | 0.00 | 0.00 | 0.00 | 30 | 1006.7 |
| 20260505193052 | 78 | 127 | 2.6 | 13.9 | 0.00 | 0.00 | 0.00 | 30 | 1006.8 |
| 20260505191543 | 78 | 169 | 4.3 | 11.3 | 0.00 | 0.00 | 0.00 | 30 | 1006.9 |
| 20260505190038 | 78 | 228 | 4.3 | 12.2 | 0.00 | 0.00 | 0.00 | 28 | 1007.0 |
| 20260505184536 | 79 | 206 | 4.3 | 14.8 | 0.00 | 0.00 | 0.00 | 28 | 1007.5 |
| 20260505183038 | 79 | 212 | 6.1 | 15.6 | 0.00 | 0.00 | 0.00 | 26 | 1007.4 |
| 20260505181546 | 79 | 266 | 4.3 | 16.5 | 0.00 | 0.00 | 0.00 | 26 | 1007.6 |
| 20260505180040 | 79 | 184 | 2.6 | 14.8 | 0.00 | 0.00 | 0.00 | 28 | 1007.5 |
| 20260505174535 | 78 | 96 | 1.7 | 13.0 | 0.00 | 0.00 | 0.00 | 27 | 1007.6 |
| 20260505173035 | 78 | 56 | 3.5 | 13.9 | 0.00 | 0.00 | 0.00 | 27 | 1007.7 |
| 20260505171541 | 77 | 228 | 4.3 | 9.6 | 0.00 | 0.00 | 0.00 | 28 | 1007.8 |
| 20260505170041 | 76 | 222 | 3.5 | 12.2 | 0.00 | 0.00 | 0.00 | 30 | 1008.2 |
| 20260505164535 | 77 | 263 | 3.5 | 11.3 | 0.00 | 0.00 | 0.00 | 29 | 1008.6 |
| 20260505163036 | 77 | 109 | 1.7 | 11.3 | 0.00 | 0.00 | 0.00 | 32 | 1008.6 |